Theta_e
347 347 348 348 347 348 350 351 348 350 351 348 344 346 350 350 348 346 342 338 335 330 326 322 323 323 323 325 325 326 327 328 333 328 327 317 318 318 317 318 319 322 325
347 348 348 348 349 348 351 352 350 351 352 347 346 345 350 351 348 346 342 337 333 330 325 319 323 325 324 325 325 325 327 327 331 326 319 318 318 317 316 316 316 319 324
348 349 350 350 350 349 351 353 352 352 352 349 348 347 349 350 348 345 341 338 333 330 325 320 321 325 324 323 324 323 325 327 329 323 319 319 318 317 317 317 317 319 327
351 351 350 351 352 352 352 353 353 352 351 351 349 349 350 350 348 345 340 335 331 329 324 320 321 324 324 323 323 322 322 325 325 321 320 319 318 318 318 317 315 316 327
350 351 351 352 352 353 353 353 352 352 352 351 350 349 350 350 347 345 340 334 331 326 321 322 324 323 323 324 324 324 322 321 322 323 319 317 317 315 312 310 314 316 317
350 348 337 345 352 352 354 354 353 352 351 351 351 350 351 349 347 345 340 333 330 325 320 322 323 323 323 322 321 320 320 320 320 320 317 317 314 311 311 312 313 314 318
351 351 346 349 353 353 353 355 355 353 351 352 350 350 350 347 347 344 338 333 330 323 322 323 324 323 322 321 320 320 320 320 320 320 318 314 311 310 312 313 314 315 315
353 352 352 353 355 354 350 350 352 353 352 350 349 349 348 345 347 343 337 333 327 324 322 323 323 323 321 316 314 317 318 316 314 313 313 312 313 313 313 313 314 312 314
354 354 354 354 356 354 346 334 349 352 351 349 349 348 345 344 346 342 336 330 325 324 321 322 322 319 316 311 311 316 316 316 314 314 314 314 314 315 315 315 314 315 314
356 355 355 356 357 357 348 347 351 353 351 348 344 344 345 343 345 341 335 325 324 322 321 321 314 310 309 311 314 313 316 316 315 315 316 316 316 315 314 314 315 314 314
356 358 358 359 358 359 358 357 355 350 346 344 341 338 338 340 344 337 330 326 324 321 321 320 313 312 313 314 316 317 318 318 318 319 318 318 316 315 315 315 314 315 316
349 355 356 356 358 357 356 352 350 348 345 342 340 336 333 334 331 330 327 327 324 319 321 320 318 317 320 319 319 319 319 319 318 317 317 316 316 315 313 313 314 315 318
348 349 351 353 354 355 353 351 348 343 340 336 337 333 331 333 337 330 326 326 324 319 319 318 319 318 320 320 319 318 315 316 318 318 316 312 312 312 314 315 316 317 318
347 347 347 348 349 350 348 343 339 339 339 337 335 334 330 328 330 332 330 327 325 322 320 319 319 319 320 319 319 318 315 313 311 313 311 311 311 313 315 315 316 317 318
346 346 346 347 347 346 346 344 341 339 338 337 336 336 333 327 330 336 328 326 322 323 321 320 320 319 319 319 320 319 317 315 314 312 311 311 312 313 315 317 318 319 319
345 345 346 347 346 345 342 341 341 338 338 338 338 341 333 332 332 331 328 324 322 322 320 318 319 319 319 320 320 319 318 316 313 313 312 312 313 314 316 318 318 319 319
344 344 343 344 344 341 338 337 333 335 336 336 336 334 334 333 332 333 328 323 322 322 320 319 318 317 318 318 319 320 320 320 315 313 312 313 314 317 319 320 319 319 319
342 342 343 341 341 340 338 336 334 329 328 330 332 332 331 329 329 328 326 322 319 320 321 320 318 318 318 317 320 320 321 321 319 317 315 316 317 321 320 320 320 320 320
340 338 337 340 339 339 338 336 334 330 329 328 328 328 328 329 327 327 326 319 317 317 318 319 319 320 321 320 318 321 321 321 319 317 315 316 320 320 319 320 320 320 319
338 338 339 338 338 337 334 333 331 330 329 326 324 326 326 325 321 321 319 318 317 317 316 315 316 315 315 316 315 318 317 316 314 314 315 318 320 318 319 319 320 319 318
335 337 336 338 337 335 334 332 330 329 328 326 325 325 328 325 320 319 317 317 317 317 321 321 316 313 312 312 312 317 316 319 318 319 320 321 318 320 319 318 320 320 318
336 337 336 335 336 334 333 334 331 328 327 326 325 324 325 324 321 319 320 319 319 321 322 321 316 312 311 313 316 317 315 320 319 321 319 316 318 320 320 320 320 318 317
332 333 335 337 336 335 334 335 332 330 328 326 324 323 321 320 320 320 320 320 320 320 321 320 318 316 314 318 317 315 315 316 318 318 317 317 318 320 321 320 318 315 314
326 330 333 335 336 335 334 335 334 331 328 326 324 321 320 320 319 320 320 320 320 320 319 319 319 320 320 319 316 316 314 315 316 318 317 315 321 321 318 316 315 313 310
324 326 331 333 333 334 334 335 334 332 330 328 324 321 322 322 321 319 320 320 319 318 320 320 320 321 320 320 318 317 315 316 318 318 318 319 320 316 313 312 310 309 308
320 320 326 331 333 333 332 332 330 331 329 327 326 323 323 320 319 319 319 319 318 319 319 321 321 321 320 316 316 316 319 320 318 320 321 319 315 313 312 311 309 308 308
Wind_Speed
36 38 37 38 38 36 34 31 30 27 25 24 25 25 25 24 21 18 16 15 15 11 8 9 10 10 10 10 10 9 7 8 6 4 10 11 8 6 5 5 3 1 5
37 37 39 38 37 37 37 35 32 30 28 27 25 26 28 26 23 21 19 18 17 14 11 11 12 11 13 12 11 10 9 9 8 10 14 12 9 8 6 4 3 3 5
23 27 30 33 36 38 39 38 35 33 32 30 30 30 31 29 27 24 20 19 19 15 13 13 15 15 15 14 12 9 8 8 10 15 11 11 9 7 5 2 2 2 5
28 31 30 33 35 38 39 40 40 39 37 35 34 34 34 32 30 25 21 20 19 16 14 14 15 16 15 14 13 10 9 11 12 16 13 11 8 6 4 1 1 1 5
27 24 34 35 33 32 33 37 41 43 42 40 38 37 36 36 32 28 24 23 20 18 16 16 15 14 13 12 12 12 12 12 13 15 12 8 8 5 3 1 1 2 5
35 39 35 25 27 34 33 34 39 42 43 43 42 40 38 38 35 28 25 26 23 20 20 18 16 14 13 11 10 9 9 12 17 15 10 11 9 6 4 4 3 3 3
33 40 36 25 32 37 34 33 38 42 41 45 45 43 41 39 36 29 27 26 23 21 19 19 18 16 14 13 12 11 10 8 11 15 16 13 11 8 9 7 4 4 3
25 35 33 36 40 41 47 41 41 38 46 45 45 44 42 42 39 35 32 29 26 24 21 21 19 18 16 15 14 14 13 11 10 10 12 15 14 12 8 7 4 1 1
19 25 31 35 37 43 47 37 29 36 40 45 49 48 46 46 44 40 39 38 34 31 26 23 20 19 18 17 15 15 13 14 12 13 14 12 10 8 7 6 3 1 1
23 20 17 27 34 36 45 42 39 40 37 31 26 38 49 49 45 41 39 37 32 29 28 25 21 20 21 20 17 16 15 16 15 13 13 11 9 8 7 7 6 5 4
26 24 15 20 30 35 31 30 24 19 9 15 6 14 27 41 48 46 42 37 35 32 30 27 26 23 22 20 18 17 17 14 15 12 11 13 12 10 10 10 10 9 10
21 22 20 19 23 26 24 19 20 18 14 16 18 19 31 18 16 39 40 34 29 30 32 28 26 26 24 22 20 17 16 13 14 13 11 11 12 12 12 11 11 11 10
15 15 14 14 13 19 23 24 23 23 27 23 20 18 29 29 29 24 28 28 24 28 27 27 26 26 24 25 22 19 18 19 17 16 15 14 13 10 9 9 12 10 12
12 9 10 11 13 11 14 15 17 19 19 21 25 23 20 20 21 34 39 34 31 30 27 23 26 26 26 25 23 22 21 20 21 21 18 15 13 12 12 12 12 12 14
13 11 10 8 11 13 15 17 23 23 23 23 25 30 30 30 40 43 44 41 37 38 34 31 28 28 26 25 24 24 24 23 23 22 20 18 17 15 15 14 15 14 13
13 12 11 10 12 14 16 19 20 18 21 24 25 30 34 36 43 40 40 36 35 34 31 26 28 32 31 31 30 29 27 26 26 24 21 20 20 19 19 19 18 17 16
15 15 12 13 13 15 17 16 13 17 19 21 23 30 33 37 33 39 39 37 35 35 27 25 25 25 27 28 30 31 32 30 27 24 23 23 22 21 20 19 17 16 16
17 16 13 14 15 17 19 19 17 16 15 19 21 25 27 29 29 34 37 31 31 32 29 25 24 29 30 26 24 28 31 29 25 23 23 23 22 20 20 19 20 19 16
14 16 16 17 18 18 20 19 18 17 16 17 19 21 22 22 23 24 27 33 29 28 29 27 27 31 34 29 22 21 25 25 25 23 24 24 22 20 20 20 18 20 17
19 17 18 16 19 19 16 16 17 17 16 16 20 25 25 23 24 27 32 30 30 30 30 30 33 33 32 34 33 26 21 23 23 25 26 25 23 22 22 20 18 18 17
19 20 19 15 18 20 18 19 18 18 18 21 23 27 34 33 25 28 31 26 23 26 33 33 32 30 31 26 23 24 25 22 23 25 28 24 24 22 23 23 20 19 18
17 17 17 17 18 20 20 19 19 19 20 20 21 26 31 32 24 25 30 30 29 29 31 32 32 32 27 23 25 25 29 25 21 24 27 26 24 24 23 21 20 19 17
17 19 21 21 20 20 19 20 21 23 22 21 22 25 29 32 27 26 28 30 29 30 30 28 26 25 25 24 28 32 29 24 23 24 25 25 24 22 20 19 17 17 17
22 20 21 21 18 20 19 19 21 24 23 22 21 24 30 30 29 28 26 24 26 28 28 26 27 30 36 28 20 28 32 29 28 29 25 24 21 18 15 15 16 16 12
22 19 19 19 21 19 18 18 16 16 24 24 23 24 26 26 26 24 25 23 23 23 22 25 30 35 27 21 23 31 31 31 26 21 19 20 19 16 13 13 14 14 13
22 19 20 19 22 21 16 15 15 16 19 19 24 26 24 25 26 27 23 21 22 21 22 25 26 22 19 20 24 27 26 23 19 17 17 17 18 16 16 18 17 15 14
Wind_Direction
211 214 216 221 223 224 226 225 222 221 219 215 215 215 212 209 208 209 210 207 206 209 209 205 202 201 195 192 199 202 192 176 149 154 154 153 143 135 111 87 75 67 178
214 213 217 222 223 226 227 229 227 223 218 215 213 211 211 211 212 212 209 207 205 206 208 205 205 198 186 180 182 185 184 183 167 156 156 152 152 152 133 102 64 26 176
213 216 217 220 223 227 231 230 229 226 221 216 215 214 213 212 212 214 216 211 205 207 212 211 201 196 191 184 182 182 179 174 179 162 148 151 160 171 173 139 42 34 159
213 215 221 224 224 228 231 232 232 229 226 222 219 220 219 215 213 213 211 207 203 207 211 204 202 199 197 186 181 178 172 166 159 161 157 163 166 159 165 232 295 242 174
210 209 231 225 231 232 232 235 234 231 228 226 223 221 222 217 212 210 209 206 205 202 202 202 200 198 202 201 197 191 180 175 174 173 161 163 167 171 187 225 216 227 163
225 224 235 208 224 225 225 229 232 233 231 227 225 223 220 216 213 211 209 202 200 204 199 198 197 195 192 191 193 197 195 189 180 170 165 167 172 177 178 159 138 142 166
219 234 237 230 213 213 222 227 231 228 226 225 222 222 221 213 209 206 207 204 200 202 203 200 191 194 196 197 194 189 179 178 186 178 171 174 167 161 141 148 136 120 127
232 225 220 216 215 221 230 227 218 218 220 218 216 217 215 211 208 201 201 200 197 198 201 202 202 198 199 198 190 184 177 170 161 165 169 147 145 137 136 143 142 87 25
291 241 220 211 212 218 224 232 213 214 217 212 209 206 206 208 206 201 201 194 192 192 188 199 207 204 195 190 186 183 180 172 156 139 144 148 152 162 163 159 157 83 356
336 311 241 217 209 216 228 242 231 224 224 216 207 203 204 205 204 201 200 192 187 192 185 189 198 198 193 188 188 181 183 185 186 188 183 185 197 206 222 235 257 250 249
343 334 300 245 220 218 221 226 232 214 189 180 165 293 215 207 203 197 196 196 187 188 187 190 193 194 198 198 201 206 208 208 204 205 203 199 207 224 239 255 262 267 255
356 351 330 287 246 219 209 195 199 188 168 168 172 215 263 210 219 193 189 198 193 189 194 196 201 198 203 209 213 214 210 213 203 198 203 213 227 239 247 251 253 264 282
348 353 345 313 252 217 193 185 189 184 194 179 176 194 223 218 198 191 201 208 199 204 204 202 203 202 210 212 211 210 211 211 212 216 225 232 232 240 245 244 250 260 270
327 341 336 321 288 242 202 204 209 190 188 181 171 169 209 213 196 182 196 209 210 204 208 213 210 206 208 211 210 214 216 217 220 225 231 238 245 246 252 258 262 266 276
309 313 314 301 292 275 253 236 222 210 202 191 200 178 190 194 194 192 202 196 200 201 198 205 206 209 207 210 212 216 218 219 222 227 233 242 251 259 266 271 272 269 261
287 297 298 287 267 260 247 241 247 243 223 217 212 214 209 220 202 206 202 199 202 200 196 188 199 208 209 211 213 216 218 220 226 230 236 247 257 266 273 276 270 262 265
259 278 285 275 256 232 224 217 214 227 234 236 228 217 214 216 216 209 203 204 206 202 193 194 203 205 212 222 222 218 218 221 227 234 243 253 261 267 271 272 271 258 264
257 270 277 276 254 237 224 221 212 194 188 205 209 206 204 199 194 200 201 199 192 200 197 197 201 212 214 221 224 225 220 221 227 239 249 257 259 265 272 265 260 253 261
253 257 267 267 265 253 236 227 213 204 195 190 194 195 197 195 191 193 198 190 194 199 197 203 207 216 222 228 229 225 222 229 236 246 256 259 263 267 264 260 260 261 267
274 268 264 259 262 249 235 223 208 201 194 187 193 193 191 186 191 191 192 194 198 199 196 203 216 222 223 228 229 226 232 243 250 258 257 261 265 269 257 257 253 260 256
283 281 278 268 242 235 223 218 214 202 196 196 202 201 199 191 193 201 195 191 198 200 211 216 218 219 220 222 219 222 228 232 255 261 263 260 266 265 258 267 256 261 261
286 282 274 260 250 233 220 215 217 210 209 203 195 200 203 194 193 199 205 204 206 212 213 216 220 219 210 204 204 213 210 238 272 272 271 270 268 268 262 257 253 251 249
277 272 268 255 239 232 227 215 215 208 209 204 192 190 192 198 202 197 200 204 204 207 214 217 216 215 209 193 201 218 226 253 279 279 274 267 266 257 254 246 247 248 251
281 271 266 262 244 225 228 233 220 206 202 199 198 192 190 193 201 207 207 206 205 208 210 210 207 204 198 205 227 228 237 256 278 276 267 263 258 248 239 245 247 236 230
280 271 267 254 247 235 241 226 212 203 214 205 194 192 192 193 200 203 202 201 200 198 202 206 206 200 212 235 236 239 243 266 268 264 260 247 239 224 231 236 228 229 232
273 269 266 251 235 228 223 231 239 224 199 190 181 195 190 187 193 196 200 197 195 200 208 208 204 221 236 235 235 239 263 264 250 241 234 228 221 221 227 233 232 231 240